Theta_e
290 291 291 291 291 292 292 293 294 294 294 293 293 292 291 292 292 292 292 292 292 295 295 299 301 302 301 303 304 304 305 304 301 302 303 304 305 304 304 304 304 306 301 299 304 299 304 305 304 303 302 305 304 303
290 290 291 291 291 292 292 293 293 294 294 293 293 293 292 291 291 292 292 292 292 291 293 294 294 296 302 303 306 304 304 304 303 302 301 302 306 305 304 305 303 305 303 304 304 304 304 307 304 306 304 303 302 301
290 291 291 291 291 292 292 293 293 293 294 293 293 293 292 291 291 292 292 292 291 292 292 293 294 298 302 302 303 304 303 303 304 304 302 305 307 305 304 304 303 304 304 305 303 304 305 306 303 305 305 303 302 301
290 290 291 290 291 292 292 292 293 293 294 294 294 293 293 291 291 291 292 292 292 293 295 295 298 297 301 303 303 305 306 305 303 303 301 302 304 305 304 304 303 303 304 303 304 306 305 305 304 304 304 302 302 301
290 290 290 291 291 291 292 292 293 293 294 294 293 294 293 292 291 291 292 292 292 292 294 294 293 301 301 302 303 305 305 305 304 302 300 303 305 303 303 303 304 304 304 304 302 305 303 305 304 304 303 302 301 301
290 290 291 291 292 292 292 292 293 294 294 293 293 294 294 293 291 291 291 291 292 291 292 295 296 301 302 302 302 304 305 305 305 301 300 304 305 303 303 305 305 305 305 304 304 305 305 305 304 303 303 301 301 301
290 291 291 292 292 293 293 293 294 293 294 293 294 294 294 291 291 290 290 292 292 291 293 294 297 300 302 302 301 303 305 304 305 303 300 303 302 302 299 304 304 305 305 305 304 304 305 304 303 303 302 303 302 302
291 291 291 292 292 293 293 293 294 293 294 293 293 294 291 290 291 291 291 293 292 291 293 296 299 302 301 300 300 301 302 303 303 302 301 301 301 297 301 303 304 304 304 303 303 303 303 302 301 301 302 301 301 300
291 291 292 292 293 293 294 294 294 294 294 293 294 292 290 291 291 290 291 292 292 292 294 296 298 303 300 299 300 299 300 303 302 299 299 301 300 303 303 303 303 303 304 303 302 302 301 301 301 301 300 300 300 300
292 292 292 293 293 294 294 294 294 293 293 292 290 290 290 290 291 292 291 292 292 291 291 293 297 300 300 300 300 300 299 300 299 300 300 299 302 302 303 303 302 303 303 303 302 301 301 300 301 300 300 300 301 299
293 293 293 293 294 294 294 295 294 293 291 290 290 290 291 290 291 291 292 292 293 293 293 292 294 301 300 300 300 299 300 302 304 301 301 302 302 301 302 302 301 301 302 301 301 301 299 300 300 299 299 300 301 300
294 294 294 293 294 294 293 292 293 291 290 289 290 291 291 290 288 291 291 293 293 295 295 295 299 300 299 299 300 299 301 301 302 299 297 300 298 300 301 302 302 302 301 300 301 301 301 301 300 299 300 300 299 298
294 294 294 293 294 292 291 291 290 289 290 290 290 289 288 292 291 288 286 289 290 295 297 297 298 300 300 299 298 299 301 301 299 297 300 298 300 300 300 301 301 301 302 301 301 301 301 301 301 301 297 296 296 295
294 294 292 292 292 292 292 290 290 290 289 288 288 291 289 288 291 291 290 290 291 296 298 298 299 300 297 300 298 299 299 299 298 298 301 297 299 300 301 301 301 301 301 302 300 300 298 297 295 296 295 295 294 292
292 292 292 293 292 292 291 290 290 289 291 289 289 287 292 291 294 292 293 294 294 298 299 299 299 299 300 300 299 299 300 300 301 299 297 298 300 301 301 301 301 300 299 299 297 293 292 292 292 290 292 292 293 291
293 293 293 293 292 292 291 291 290 291 291 290 291 292 293 292 292 292 294 295 297 299 300 299 301 301 301 300 301 299 301 301 299 296 297 300 301 301 301 301 301 300 299 296 293 292 291 291 291 289 289 290 290 289
293 293 293 292 292 291 291 291 291 291 292 291 291 292 293 293 292 296 297 298 299 301 301 301 301 301 299 301 300 298 298 297 297 298 299 301 300 300 301 301 300 298 296 294 293 291 290 291 289 288 287 287 287 287
293 293 292 292 291 291 290 291 291 291 292 292 293 292 292 292 293 296 300 300 301 300 299 300 300 300 299 300 298 296 295 295 296 299 299 300 300 300 301 300 298 296 294 293 292 292 291 289 289 287 287 287 286 286
293 293 292 291 291 291 291 290 292 293 292 292 292 291 291 292 296 298 300 301 300 300 300 299 300 299 298 298 297 296 297 299 298 296 297 297 298 299 299 298 296 294 293 293 292 292 291 291 290 289 289 289 289 289
292 292 291 291 291 292 293 292 291 292 296 296 292 291 295 298 299 300 301 300 300 299 299 300 300 299 299 299 300 299 299 297 298 298 297 297 297 297 296 295 294 294 293 293 293 293 292 291 291 290 289 290 290 289
292 292 292 292 292 292 293 294 292 295 297 296 296 298 299 298 299 298 298 298 298 299 300 299 298 296 298 298 298 298 297 298 298 298 296 296 295 295 295 295 294 293 292 291 289 289 289 288 288 289 289 289 289 288
292 292 291 291 292 293 294 295 296 295 296 296 295 297 297 298 297 297 296 297 297 296 296 296 297 296 296 298 296 297 297 297 296 295 295 294 294 293 291 291 291 289 289 289 290 289 288 288 289 289 288 287 286 286
291 291 292 292 295 295 295 294 295 296 296 296 296 297 296 296 296 295 295 295 295 294 293 295 295 296 296 296 296 296 296 296 295 294 294 293 292 292 291 290 289 289 289 288 288 287 288 288 288 287 286 286 286 285
291 292 293 294 295 294 294 293 294 295 295 295 295 295 295 295 294 293 293 294 294 294 294 294 295 295 295 295 294 294 294 294 293 293 292 292 290 289 289 288 288 289 288 287 286 286 286 285 285 285 285 285 284 284
293 291 293 293 294 293 293 293 293 294 294 293 293 293 295 295 294 295 294 294 294 294 293 293 294 293 293 293 292 292 293 292 292 291 290 289 288 287 287 287 287 287 287 287 286 286 285 285 285 284 284 284 283 283
291 290 292 293 293 293 294 291 291 292 291 290 293 293 294 292 293 293 292 291 294 294 293 293 293 292 292 291 291 291 290 289 288 288 288 287 287 286 286 285 285 284 286 285 285 285 284 284 283 283 282 282 282 282
291 289 292 292 294 294 294 294 293 291 289 288 291 291 291 291 290 290 289 289 291 291 290 289 289 289 289 288 287 287 287 286 285 284 284 285 286 286 286 284 283 282 283 282 282 282 282 282 281 281 281 281 281 281
290 291 291 292 292 292 289 289 290 289 290 292 290 287 287 288 287 287 287 288 288 287 286 285 285 285 285 284 284 284 283 283 283 283 282 281 281 281 281 280 280 279 279 279 279 279 279 279 279 279 279 278 278 278
291 291 288 285 286 286 286 289 289 289 289 290 285 284 284 285 286 285 287 287 286 286 286 285 285 285 284 284 283 284 283 283 282 281 280 280 278 279 279 279 279 279 279 279 280 279 279 279 278 278 278 278 278 278
289 290 286 282 281 284 287 287 287 287 285 283 283 283 282 281 283 285 286 286 286 285 285 285 284 284 283 281 279 280 283 285 284 283 281 279 279 279 279 279 279 278 278 278 278 277 277 277 277 277 277 277 277 277
291 289 285 285 285 288 288 288 286 285 282 283 282 282 282 283 283 282 282 285 285 285 284 283 282 282 281 280 279 278 277 279 280 280 279 279 279 278 277 277 277 276 276 277 276 276 275 275 275 275 275 275 275 275
291 286 282 284 287 288 287 286 285 285 284 283 282 281 281 279 280 282 281 284 285 284 283 282 281 279 281 280 279 277 277 277 278 278 278 276 276 275 275 275 275 275 275 274 274 275 275 275 275 274 274 274 274 273
287 286 286 285 286 287 286 285 286 287 287 285 286 284 281 278 278 280 280 283 281 280 280 279 279 279 278 277 277 276 276 275 275 275 275 275 275 275 275 274 274 274 274 274 273 273 272 272 272 271 271 271 271 271
Wind_Speed
32 32 32 33 33 32 31 31 31 32 35 36 33 30 28 26 21 19 7 20 9 2 5 9 11 10 6 2 3 5 4 2 3 4 4 4 3 6 5 8 8 9 7 4 4 2 8 9 6 11 6 2 7 9
35 35 35 35 34 33 32 31 32 32 33 35 35 33 30 28 24 20 9 16 18 4 4 13 25 28 25 6 2 5 7 5 5 4 2 3 2 1 7 4 8 5 7 6 9 7 6 3 5 5 6 8 5 9
37 37 37 37 36 34 33 32 32 30 31 36 36 34 32 30 27 24 15 14 8 2 5 9 13 32 22 25 11 1 2 7 3 4 4 4 4 4 4 4 6 4 9 4 4 8 12 6 7 8 7 6 8 7
39 39 39 39 38 35 35 34 33 32 31 34 35 35 34 31 29 26 24 21 14 3 3 6 17 21 22 19 13 11 10 3 7 4 3 3 3 3 4 5 6 6 13 7 4 6 7 7 7 9 9 8 8 9
43 42 42 41 40 38 36 35 33 34 34 36 34 34 35 32 29 26 25 22 25 7 2 5 23 23 22 23 16 11 17 7 1 2 2 3 2 2 3 2 4 6 7 8 5 7 6 5 8 9 11 9 10 9
46 44 44 42 40 39 37 36 35 34 34 37 36 37 34 32 27 22 4 22 26 20 2 3 6 9 20 22 18 8 8 8 3 2 3 3 3 4 2 3 5 3 5 13 6 7 9 7 9 8 9 12 9 11
50 47 45 43 42 40 39 37 34 32 34 35 32 35 33 32 32 15 5 8 35 27 3 3 4 5 24 15 5 4 7 3 4 3 1 4 3 4 3 4 5 8 6 4 7 7 4 7 6 9 8 16 24 21
53 51 48 45 43 41 38 34 30 29 34 32 32 33 33 30 25 19 29 5 34 12 3 3 4 7 18 4 2 3 4 3 1 3 1 4 1 2 4 8 8 9 5 7 8 7 7 6 8 7 8 6 11 10
54 52 50 48 45 40 36 34 30 36 30 31 33 32 25 17 10 21 25 20 20 6 4 4 6 4 8 4 4 2 3 2 3 3 3 4 3 6 6 7 9 16 7 4 5 6 8 8 8 9 8 6 9 10
41 40 36 39 44 41 35 29 34 36 34 38 34 10 4 9 12 15 14 5 5 3 4 3 3 6 10 5 2 4 2 3 3 5 3 3 9 6 7 9 9 11 10 8 6 6 6 6 8 8 9 7 8 11
47 43 36 28 34 40 35 38 39 46 42 22 4 4 10 25 14 4 5 5 4 5 5 4 6 3 4 6 5 3 3 2 2 3 6 4 9 14 10 7 8 9 8 9 7 8 9 7 8 8 9 11 18 20
28 37 37 30 26 41 45 41 50 37 21 19 13 13 13 5 3 5 5 4 6 6 8 10 6 7 4 4 3 1 4 5 6 6 4 5 5 8 16 17 18 15 13 10 10 9 13 12 15 12 13 14 16 24
24 23 33 28 36 54 55 57 42 38 35 22 5 4 3 4 6 10 7 4 4 5 5 9 8 4 3 3 3 3 5 4 5 3 4 4 8 10 15 18 24 20 19 13 11 12 17 15 20 21 16 26 33 30
19 30 23 44 54 56 56 52 43 31 25 3 4 8 6 5 6 6 13 13 8 4 10 12 9 4 3 3 3 5 4 4 3 4 7 4 6 7 12 13 14 15 18 16 11 10 11 14 16 26 32 33 33 26
35 44 50 48 54 55 54 45 38 29 4 4 4 6 7 4 2 3 8 5 10 12 12 9 3 1 4 3 3 4 5 5 5 9 3 5 8 8 7 7 8 10 11 10 9 10 14 21 22 19 26 30 33 28
35 36 38 47 49 50 47 38 24 6 2 3 5 2 1 1 7 9 11 9 12 15 14 6 4 3 3 5 4 5 8 5 5 4 5 5 7 7 6 6 6 9 12 11 16 20 22 22 24 24 25 27 27 24
15 17 41 46 47 46 38 18 6 1 3 3 3 3 3 4 7 11 11 11 14 16 12 4 5 5 4 3 4 5 5 4 4 3 3 7 9 7 7 7 9 13 14 21 22 22 24 26 29 26 17 20 22 19
18 36 39 42 40 31 12 3 2 4 6 6 4 5 4 5 7 10 8 15 13 10 2 4 4 4 5 6 4 3 3 1 2 5 4 6 6 7 6 10 16 21 22 24 26 26 27 24 18 15 23 23 20 16
30 35 40 38 26 9 3 3 2 3 4 2 5 7 3 6 10 12 11 14 13 4 3 2 3 2 3 2 5 4 4 5 5 3 4 6 8 11 17 24 22 22 24 25 25 21 21 22 22 23 24 21 18 16
35 38 38 29 19 3 3 2 3 1 5 3 6 11 7 2 1 7 9 8 3 3 4 3 3 3 0 1 2 3 8 9 10 9 7 6 13 19 17 18 16 23 23 24 24 24 22 20 22 23 21 16 20 16
25 26 20 11 2 2 1 4 5 4 3 3 5 5 5 7 7 6 4 4 5 2 2 2 3 4 8 8 9 7 6 6 7 7 10 9 9 19 18 21 20 18 16 15 15 18 21 18 25 24 22 19 16 12
5 9 3 3 3 2 3 3 2 1 3 2 4 4 4 3 4 4 2 5 2 2 2 3 3 3 6 7 5 12 20 18 18 16 19 19 9 9 9 15 18 11 15 15 18 17 19 23 21 19 17 14 11 8
9 5 1 2 3 3 3 6 4 4 4 3 3 4 3 3 2 2 3 2 2 2 3 3 4 11 10 16 17 18 24 22 10 10 16 17 18 19 20 19 20 16 14 18 25 24 23 22 18 17 14 11 8 4
8 1 2 2 0 1 2 4 3 3 3 2 3 3 3 2 3 3 3 2 2 2 4 7 7 9 9 9 6 7 16 22 19 19 22 21 9 15 21 21 23 22 22 23 24 21 19 17 13 11 9 5 3 1
3 3 2 1 1 3 3 2 4 3 3 4 4 3 2 2 3 3 2 1 2 3 3 3 4 6 8 7 7 11 17 22 14 11 17 23 24 23 22 23 23 20 21 22 18 18 15 11 8 6 3 1 2 5
1 2 1 0 1 3 2 2 2 3 3 4 3 1 1 2 3 3 3 5 1 3 4 6 8 9 9 9 9 9 17 24 28 19 20 22 21 19 12 9 8 13 13 15 16 14 10 7 4 1 2 5 6 8
3 3 2 2 0 3 3 4 4 4 3 3 2 2 2 3 3 1 2 4 2 7 16 18 18 12 9 15 22 23 24 24 24 22 26 25 21 19 18 16 12 11 10 10 9 8 6 3 0 3 6 9 10 11
1 2 2 4 4 4 3 3 2 2 2 2 3 4 3 3 2 2 2 10 17 24 25 24 23 24 24 23 24 27 26 30 33 34 34 31 27 25 22 19 15 10 8 6 4 3 1 1 4 7 10 13 16 16
2 1 3 6 5 5 5 5 3 2 4 1 3 3 2 2 1 1 6 12 16 22 20 19 19 25 25 25 23 21 18 17 19 15 13 6 6 14 13 13 12 10 8 6 4 5 5 7 10 12 14 17 19 20
0 1 4 4 4 3 3 2 1 1 3 3 4 5 3 3 11 9 10 13 13 14 15 17 18 19 17 18 17 22 21 18 15 16 8 7 9 12 9 8 7 5 4 4 5 7 8 9 12 14 16 17 19 20
1 3 4 3 3 1 5 8 8 7 4 6 6 7 5 3 9 24 21 13 18 19 18 17 17 15 16 15 16 16 11 20 22 23 24 21 14 9 7 5 4 5 5 6 8 10 12 14 15 17 19 20 22 23
1 3 4 4 5 4 3 3 4 6 4 5 3 2 3 4 4 4 18 11 16 14 15 17 18 15 20 19 16 20 26 24 22 20 17 14 11 9 8 6 4 5 7 9 11 13 15 16 18 19 21 21 22 24
7 8 7 4 3 4 2 3 3 3 2 2 2 2 3 3 3 1 12 15 18 18 19 20 21 23 24 26 27 25 23 21 18 16 14 12 11 10 10 10 11 10 11 12 13 15 16 17 19 20 22 23 25 26
Wind_Direction
289 285 282 279 277 276 274 272 264 259 258 241 235 230 231 231 232 222 232 218 207 253 279 289 274 247 257 229 207 210 92 258 66 115 142 201 175 207 148 176 171 168 159 169 180 174 268 227 158 158 208 22 126 117
286 282 280 278 276 273 272 271 266 266 248 240 233 227 225 226 227 224 211 207 223 217 280 291 280 280 255 173 107 244 171 169 169 112 146 140 245 210 150 199 165 179 180 173 180 205 239 250 166 148 117 123 100 112
284 281 278 276 274 270 269 266 263 259 253 240 229 225 220 218 220 219 207 201 198 225 273 262 255 266 255 243 233 194 259 156 146 152 153 203 207 153 176 218 137 215 178 180 122 242 249 260 160 139 130 131 127 120
284 280 278 276 274 270 267 264 262 256 252 232 229 223 217 212 214 218 213 205 199 306 276 278 243 235 255 214 187 201 205 293 144 131 154 181 174 173 207 203 158 187 168 193 225 270 183 229 158 159 144 138 136 140
281 279 276 272 270 269 264 261 258 255 243 233 226 221 211 207 208 215 221 216 207 193 283 312 315 250 228 197 178 181 193 222 241 115 126 192 219 43 304 38 218 187 166 184 217 198 164 202 179 163 158 161 152 142
279 275 272 268 264 264 259 258 254 249 238 223 229 215 207 201 196 206 220 226 211 195 266 263 307 233 205 200 176 188 176 195 217 157 184 181 217 136 186 228 237 235 187 178 194 178 195 177 183 177 161 162 157 151
277 272 268 264 262 258 255 252 238 246 229 216 212 205 200 191 191 184 187 194 194 179 212 239 257 237 188 164 159 170 164 168 183 221 167 160 215 146 167 194 215 239 235 183 179 159 180 170 195 185 168 175 170 166
271 267 264 260 256 252 249 245 241 218 208 204 200 192 184 188 198 213 221 223 174 168 196 230 260 174 160 140 155 159 144 174 258 196 152 155 320 128 233 186 229 274 265 214 206 179 163 171 139 144 136 118 157 149
267 262 257 251 245 245 238 229 232 197 196 187 180 172 171 187 198 210 215 198 179 199 200 208 204 207 158 128 133 76 129 126 187 194 176 128 203 221 189 162 194 229 234 267 225 180 171 167 181 157 154 181 154 142
260 256 250 244 232 226 224 225 192 178 173 155 154 164 184 188 168 168 170 193 209 195 186 273 190 245 184 144 122 109 118 168 177 216 121 197 234 217 170 179 200 219 230 232 241 229 197 180 177 166 164 152 146 144
249 241 235 234 220 213 203 183 176 167 155 156 136 186 148 159 162 165 210 187 186 178 187 213 213 198 214 168 134 128 153 146 188 240 165 230 242 224 219 206 195 207 218 235 232 220 197 172 175 161 165 154 153 153
234 223 209 203 197 185 163 166 166 150 156 154 145 130 132 148 166 199 187 212 182 221 184 176 181 188 162 126 104 126 126 169 190 150 157 247 203 177 195 212 232 225 204 210 225 219 189 171 167 158 152 145 132 131
206 190 181 179 178 148 151 148 145 140 138 135 131 152 127 184 175 173 200 207 198 187 181 157 166 203 129 121 119 144 155 181 123 142 222 226 167 188 192 205 222 223 212 195 217 191 170 159 166 156 119 130 131 127
127 156 147 147 144 146 149 148 145 135 132 123 141 178 195 189 218 192 189 203 210 198 169 165 160 217 145 97 141 132 185 128 166 195 222 191 179 205 204 210 211 209 204 199 179 169 152 128 114 132 137 139 132 128
100 129 137 142 142 146 148 146 147 149 139 145 164 209 215 232 228 273 200 189 200 211 179 157 139 119 91 127 180 135 147 180 198 229 199 185 191 218 203 180 168 180 177 166 126 116 118 123 121 115 135 140 138 137
116 121 134 140 143 146 148 149 151 136 292 183 219 243 66 127 236 219 236 204 219 191 164 136 140 143 134 148 159 177 156 192 229 180 202 198 189 184 166 156 150 158 143 122 122 127 126 128 129 125 132 136 137 139
90 127 139 143 145 145 145 132 125 179 228 234 227 155 180 287 297 273 222 187 181 176 160 128 126 168 137 150 141 162 206 211 201 185 175 176 169 153 137 133 123 124 121 120 121 122 120 122 125 123 118 131 132 137
124 140 141 137 136 140 135 147 199 230 225 241 229 220 175 213 241 262 228 160 164 171 149 141 138 145 155 161 186 225 143 72 77 84 92 99 96 109 112 114 117 118 116 119 122 123 124 124 120 120 130 137 136 139
142 145 140 140 144 118 139 199 216 269 256 285 288 274 258 277 248 215 160 145 158 170 90 65 97 143 165 170 156 193 150 136 116 81 63 52 86 101 107 113 114 114 118 123 123 125 127 127 131 136 138 141 139 153
146 146 143 146 167 205 126 129 139 275 282 270 216 256 245 210 180 130 135 143 93 78 49 46 41 343 83 82 60 135 134 130 118 101 85 82 101 107 109 111 115 119 115 117 120 124 121 117 132 138 142 151 148 135
141 152 153 183 286 328 346 191 178 227 255 358 359 46 52 58 74 79 78 27 45 42 81 51 47 30 57 72 79 88 80 107 101 114 125 114 110 105 109 110 113 115 113 112 111 107 108 112 120 126 125 123 130 136
117 151 74 30 359 249 251 280 265 308 43 338 23 40 42 43 33 22 69 45 46 25 54 104 101 80 78 72 66 101 105 94 97 103 107 111 111 105 99 102 100 95 95 101 107 108 111 124 128 130 133 130 132 143
121 94 340 254 274 356 326 318 10 32 46 16 14 48 39 41 21 321 72 40 68 0 54 66 64 81 94 101 101 101 109 112 113 112 111 110 106 100 95 92 102 102 96 92 113 113 115 127 128 129 132 140 158 162
102 209 249 237 265 59 5 9 3 42 36 56 52 49 46 35 341 60 67 41 17 22 98 104 104 104 89 89 92 99 105 108 108 107 114 113 102 88 91 93 97 103 107 112 112 115 124 122 129 132 141 137 111 19
182 215 255 325 196 94 72 32 357 64 37 45 63 45 22 10 62 49 48 10 79 96 88 72 81 92 105 98 89 88 106 112 110 104 101 108 105 95 87 81 80 99 123 119 114 121 119 128 128 125 117 95 296 292
119 285 9 307 265 104 128 99 83 91 73 53 49 42 47 66 59 47 25 340 42 112 108 109 108 94 80 80 95 90 93 105 105 97 94 101 108 112 114 108 97 70 106 123 124 120 119 119 121 145 284 298 301 300
77 16 298 247 143 79 60 54 67 79 101 118 155 120 99 76 75 42 346 341 39 82 81 85 91 91 96 95 90 92 96 93 93 96 98 106 117 123 122 112 100 101 119 115 122 129 131 135 320 317 309 300 301 303
18 23 81 344 48 35 83 75 82 77 36 26 66 46 74 39 70 16 354 6 89 95 88 84 86 91 92 93 98 100 100 106 106 102 95 85 88 96 103 105 112 110 105 99 88 81 72 315 300 299 300 299 301 302
68 65 73 26 56 47 27 8 43 43 341 329 95 82 84 24 55 61 38 69 96 101 102 102 98 99 94 92 95 103 105 111 113 99 95 98 82 71 86 88 84 80 73 67 40 7 345 321 312 308 306 304 305 306
161 51 87 51 55 51 11 360 86 16 37 75 102 104 77 41 30 70 90 89 94 94 99 105 112 112 109 104 92 76 84 105 116 117 116 112 111 110 102 94 82 62 39 6 352 339 332 322 314 313 312 308 306 305
117 92 76 73 93 50 67 78 77 66 50 80 86 101 102 117 52 35 34 99 111 111 107 100 96 105 110 110 111 103 78 86 102 106 111 113 117 112 101 92 50 46 24 345 331 329 325 324 323 318 313 309 307 305
82 97 115 108 126 131 88 51 65 90 95 95 79 76 67 61 65 27 9 52 102 105 107 110 105 96 118 122 119 118 119 118 114 114 113 107 100 90 87 72 31 345 354 9 355 340 330 323 320 317 313 309 306 304
89 95 99 106 119 119 201 103 89 122 99 71 59 68 48 78 92 88 35 94 102 102 103 110 115 122 123 124 124 122 118 114 113 111 106 90 79 75 64 47 33 24 6 346 337 332 328 324 318 315 312 308 306 304